Location: Roanoke
(37.2710°N, 79.9420°W)
Time: 15:47:51
(UTC-05:00)

S-56A Canister/Altair - Pass Details

Date: 23 November 2019
Orbit: 633 x 2500 km, 38.9° (Epoch: 12 December)

Event Time Altitude Azimuth Distance (km) Brightness Sun altitude
Rises 13:55:16 0° 216° (SW) 6,125 13.4 26.9°
Reaches altitude 10° 13:59:48 10° 209° (SSW) 5,013 13.6 26.4°
Maximum altitude 14:12:19 41° 147° (SSE) 2,684 10.9 25.1°
Drops below altitude 10° 14:21:37 10° 82° (E) 3,759 10.7 24.1°
Sets 14:24:28 0° 75° (ENE) 4,500 11.0 23.8°
